HNT1988 KALB-KDCA

Flight info

Callsign HNT1988
Flight time N/A
Altitude 30000
Route PWL BIZEX Q75 MXE CLIPR3
Aircraft F28/M-SDFIRWY/H

Departure

Time 2026-04-30 04:09
Airport Albany International Airport (KALB)

Arrival

Time N/A
Airport Ronald Reagan Washington National Airport (KDCA)
Time Latitude Longitude Altitude Speed Heading
2026-04-30 03:42 42.74452 -73.80776 288 ft 0 kts 267°
2026-04-30 03:54 42.74453 -73.80749 288 ft 4 kts 269°
2026-04-30 03:55 42.74453 -73.80713 288 ft 4 kts 275°
2026-04-30 03:55 42.74447 -73.80677 288 ft 4 kts 296°
2026-04-30 03:55 42.74432 -73.80661 288 ft 1 kts 359°
2026-04-30 03:55 42.74428 -73.80661 288 ft 0 kts 359°
2026-04-30 04:03 42.74479 -73.80662 293 ft 9 kts
2026-04-30 04:03 42.74528 -73.80636 288 ft 7 kts 25°
2026-04-30 04:03 42.74597 -73.80612 288 ft 12 kts
2026-04-30 04:03 42.74671 -73.80615 288 ft 9 kts 355°
2026-04-30 04:04 42.74753 -73.80620 290 ft 17 kts 358°
2026-04-30 04:04 42.74861 -73.80625 288 ft 14 kts 358°
2026-04-30 04:04 42.74960 -73.80629 288 ft 15 kts 358°
2026-04-30 04:04 42.75060 -73.80633 287 ft 17 kts 358°
2026-04-30 04:05 42.75177 -73.80638 289 ft 16 kts 358°
2026-04-30 04:05 42.75280 -73.80642 289 ft 15 kts 359°
2026-04-30 04:05 42.75398 -73.80647 287 ft 16 kts 356°
2026-04-30 04:05 42.75501 -73.80653 292 ft 13 kts 358°
2026-04-30 04:06 42.75586 -73.80655 288 ft 11 kts 359°
2026-04-30 04:06 42.75692 -73.80657 292 ft 16 kts 359°
2026-04-30 04:06 42.75796 -73.80661 288 ft 14 kts 359°
2026-04-30 04:06 42.75898 -73.80665 288 ft 17 kts 359°
2026-04-30 04:07 42.76001 -73.80667 288 ft 9 kts
2026-04-30 04:07 42.76028 -73.80638 288 ft 4 kts 60°
2026-04-30 04:07 42.76035 -73.80588 289 ft 7 kts 86°
2026-04-30 04:08 42.76020 -73.80525 292 ft 0 kts 171°
2026-04-30 04:08 42.75867 -73.80519 292 ft 60 kts 179°
2026-04-30 04:08 42.75170 -73.80489 286 ft 138 kts 178°
2026-04-30 04:08 42.74115 -73.80407 846 ft 169 kts 176°
2026-04-30 04:09 42.72859 -73.80358 1778 ft 189 kts 176°
2026-04-30 04:09 42.71466 -73.80358 2728 ft 198 kts 180°
2026-04-30 04:09 42.70107 -73.80334 3935 ft 196 kts 177°
2026-04-30 04:09 42.68692 -73.80132 4702 ft 221 kts 172°
2026-04-30 04:10 42.67126 -73.79781 4990 ft 232 kts 170°
2026-04-30 04:10 42.65534 -73.79382 5273 ft 234 kts 170°
2026-04-30 04:10 42.63948 -73.78982 5554 ft 234 kts 170°
2026-04-30 04:10 42.62347 -73.78577 5867 ft 232 kts 170°
2026-04-30 04:11 42.60768 -73.78194 6245 ft 230 kts 171°
2026-04-30 04:11 42.59150 -73.77817 6613 ft 242 kts 171°
2026-04-30 04:11 42.57442 -73.77421 7004 ft 254 kts 171°
2026-04-30 04:11 42.55655 -73.77007 7394 ft 268 kts 171°
2026-04-30 04:12 42.53768 -73.76580 7788 ft 282 kts 171°
2026-04-30 04:12 42.51844 -73.76168 8182 ft 276 kts 172°
2026-04-30 04:12 42.49980 -73.75773 8545 ft 268 kts 172°
2026-04-30 04:12 42.48164 -73.75380 8930 ft 261 kts 172°
2026-04-30 04:13 42.46409 -73.74998 9279 ft 251 kts 172°
2026-04-30 04:13 42.44715 -73.74634 9646 ft 242 kts 172°
2026-04-30 04:13 42.43092 -73.74271 10009 ft 233 kts 172°
2026-04-30 04:13 42.41503 -73.73913 10354 ft 236 kts 172°
2026-04-30 04:14 42.39862 -73.73537 10737 ft 236 kts 171°
2026-04-30 04:14 42.38235 -73.73169 11113 ft 240 kts 174°
2026-04-30 04:14 42.36550 -73.72809 11493 ft 250 kts 173°
2026-04-30 04:14 42.34801 -73.72421 11875 ft 259 kts 173°
2026-04-30 04:15 42.33004 -73.72024 12252 ft 271 kts 173°
2026-04-30 04:15 42.31087 -73.71606 12644 ft 280 kts 173°
2026-04-30 04:15 42.29177 -73.71176 13031 ft 284 kts 173°
2026-04-30 04:15 42.27207 -73.70748 13422 ft 290 kts 173°
2026-04-30 04:16 42.25177 -73.70308 13813 ft 301 kts 174°
2026-04-30 04:16 42.23086 -73.69873 14199 ft 308 kts 173°
2026-04-30 04:16 42.20934 -73.69423 14590 ft 317 kts 173°
2026-04-30 04:16 42.18732 -73.68951 14981 ft 324 kts 173°
2026-04-30 04:17 42.16474 -73.68468 15376 ft 331 kts 173°
2026-04-30 04:17 42.14176 -73.67972 15760 ft 338 kts 173°
2026-04-30 04:17 42.11829 -73.67460 16147 ft 344 kts 173°
2026-04-30 04:17 42.09444 -73.66939 16533 ft 350 kts 173°
2026-04-30 04:18 42.07016 -73.66409 16917 ft 355 kts 173°
2026-04-30 04:18 42.04563 -73.65873 17297 ft 360 kts 173°
2026-04-30 04:18 42.02074 -73.65328 17677 ft 364 kts 173°
2026-04-30 04:18 41.99588 -73.64783 18053 ft 368 kts 173°
2026-04-30 04:19 41.97044 -73.64244 18433 ft 372 kts 174°
2026-04-30 04:19 41.94479 -73.63718 18807 ft 375 kts 174°
2026-04-30 04:19 41.91891 -73.63187 19187 ft 377 kts 174°
2026-04-30 04:19 41.89285 -73.62643 19562 ft 379 kts 174°
2026-04-30 04:20 41.86670 -73.62092 19940 ft 381 kts 174°
2026-04-30 04:20 41.84047 -73.61535 20317 ft 382 kts 174°
2026-04-30 04:20 41.81415 -73.60967 20694 ft 383 kts 174°
2026-04-30 04:20 41.78779 -73.60391 21071 ft 384 kts 174°
2026-04-30 04:21 41.76134 -73.59906 21448 ft 382 kts 178°
2026-04-30 04:21 41.73483 -73.59672 21820 ft 381 kts 181°
2026-04-30 04:21 41.70841 -73.59552 22185 ft 380 kts 182°
2026-04-30 04:21 41.68227 -73.59477 22563 ft 379 kts 182°
2026-04-30 04:22 41.65595 -73.59419 22932 ft 378 kts 183°
2026-04-30 04:22 41.62966 -73.59352 23302 ft 377 kts 182°
2026-04-30 04:22 41.60347 -73.59252 23675 ft 376 kts 182°
2026-04-30 04:22 41.57735 -73.59146 24041 ft 374 kts 183°
2026-04-30 04:23 41.55134 -73.59055 24419 ft 373 kts 183°
2026-04-30 04:23 41.52549 -73.58960 24792 ft 371 kts 182°
2026-04-30 04:23 41.49971 -73.58841 25170 ft 369 kts 182°
2026-04-30 04:23 41.47409 -73.58733 25537 ft 367 kts 182°
2026-04-30 04:24 41.44865 -73.58632 25907 ft 364 kts 183°
2026-04-30 04:24 41.42340 -73.58539 26279 ft 362 kts 183°
2026-04-30 04:24 41.39828 -73.58442 26649 ft 359 kts 182°
2026-04-30 04:24 41.37341 -73.58333 27016 ft 357 kts 182°
2026-04-30 04:25 41.34902 -73.58226 27385 ft 353 kts 183°
2026-04-30 04:25 41.32449 -73.58125 27755 ft 350 kts 183°
2026-04-30 04:25 41.30036 -73.58087 28119 ft 343 kts 190°
2026-04-30 04:25 41.27809 -73.58961 28501 ft 330 kts 212°
2026-04-30 04:26 41.26083 -73.60886 28897 ft 321 kts 230°
2026-04-30 04:26 41.24704 -73.63196 29279 ft 317 kts 233°
2026-04-30 04:26 41.23413 -73.65539 29652 ft 312 kts 234°
2026-04-30 04:26 41.22131 -73.67888 29805 ft 316 kts 234°
2026-04-30 04:27 41.20818 -73.70250 29853 ft 321 kts 233°
2026-04-30 04:27 41.18032 -73.75049 29865 ft 335 kts 232°
2026-04-30 04:28 41.15084 -73.79938 29864 ft 347 kts 231°
2026-04-30 04:28 41.12037 -73.85041 29862 ft 358 kts 232°
2026-04-30 04:29 41.08901 -73.90298 29859 ft 368 kts 232°
2026-04-30 04:29 41.05689 -73.95680 29861 ft 376 kts 232°
2026-04-30 04:30 41.02397 -74.01167 29862 ft 384 kts 231°
2026-04-30 04:30 40.99052 -74.06770 29860 ft 391 kts 231°
2026-04-30 04:31 40.95665 -74.12456 29858 ft 396 kts 231°
2026-04-30 04:31 40.92227 -74.18201 29857 ft 400 kts 231°
2026-04-30 04:32 40.88755 -74.23958 29861 ft 399 kts 231°
2026-04-30 04:32 40.85321 -74.29644 29861 ft 397 kts 231°
2026-04-30 04:33 40.81884 -74.35318 29859 ft 394 kts 231°
2026-04-30 04:33 40.78462 -74.40965 29859 ft 393 kts 231°
2026-04-30 04:34 40.75049 -74.46581 29860 ft 391 kts 231°
2026-04-30 04:34 40.71651 -74.52171 29861 ft 390 kts 231°
2026-04-30 04:35 40.68253 -74.57748 29854 ft 389 kts 231°
2026-04-30 04:35 40.64873 -74.63275 29854 ft 389 kts 231°
2026-04-30 04:36 40.61482 -74.68813 29852 ft 388 kts 231°
2026-04-30 04:36 40.58052 -74.74303 29852 ft 388 kts 229°
2026-04-30 04:37 40.54457 -74.79599 29853 ft 388 kts 227°
2026-04-30 04:37 40.50783 -74.84795 29852 ft 388 kts 227°
2026-04-30 04:38 40.47713 -74.89099 29830 ft 388 kts 227°
2026-04-30 04:38 40.44014 -74.94277 29826 ft 388 kts 227°
2026-04-30 04:39 40.40331 -74.99444 29826 ft 388 kts 227°
2026-04-30 04:39 40.36647 -75.04622 29818 ft 388 kts 227°
2026-04-30 04:40 40.32959 -75.09815 29819 ft 388 kts 227°
2026-04-30 04:40 40.29283 -75.15000 29828 ft 388 kts 227°
2026-04-30 04:41 40.25588 -75.20168 29827 ft 389 kts 226°
2026-04-30 04:41 40.21879 -75.25328 29834 ft 389 kts 226°
2026-04-30 04:42 40.18173 -75.30489 29849 ft 389 kts 226°
2026-04-30 04:42 40.14479 -75.35615 29853 ft 390 kts 226°
2026-04-30 04:43 40.10750 -75.40763 29854 ft 390 kts 226°
2026-04-30 04:43 40.07023 -75.45919 29846 ft 391 kts 226°
2026-04-30 04:44 40.03292 -75.51089 29841 ft 391 kts 226°
2026-04-30 04:44 39.99543 -75.56248 29839 ft 391 kts 226°
2026-04-30 04:45 39.95838 -75.61391 29836 ft 391 kts 227°
2026-04-30 04:45 39.92117 -75.66574 29828 ft 392 kts 229°
2026-04-30 04:46 39.88865 -75.72274 29837 ft 392 kts 235°
2026-04-30 04:46 39.85843 -75.78207 29834 ft 393 kts 236°
2026-04-30 04:46 39.84342 -75.81189 29625 ft 398 kts 236°
2026-04-30 04:47 39.82818 -75.84182 29229 ft 395 kts 236°
2026-04-30 04:47 39.81303 -75.87138 28830 ft 391 kts 236°
2026-04-30 04:47 39.79789 -75.90070 28435 ft 388 kts 235°
2026-04-30 04:47 39.78273 -75.92947 28038 ft 385 kts 234°
2026-04-30 04:48 39.76755 -75.95813 27634 ft 383 kts 235°
2026-04-30 04:48 39.75266 -75.98664 27245 ft 380 kts 235°
2026-04-30 04:48 39.73776 -76.01490 26840 ft 377 kts 235°
2026-04-30 04:48 39.72319 -76.04260 26446 ft 375 kts 235°
2026-04-30 04:49 39.70858 -76.07058 26047 ft 373 kts 235°
2026-04-30 04:49 39.69398 -76.09834 25650 ft 370 kts 235°
2026-04-30 04:49 39.67950 -76.12580 25251 ft 368 kts 235°
2026-04-30 04:49 39.66508 -76.15317 24848 ft 365 kts 235°
2026-04-30 04:50 39.65073 -76.18038 24453 ft 363 kts 236°
2026-04-30 04:50 39.63658 -76.20737 24050 ft 360 kts 236°
2026-04-30 04:50 39.62248 -76.23410 23657 ft 358 kts 235°
2026-04-30 04:50 39.60840 -76.26056 23250 ft 355 kts 235°
2026-04-30 04:51 39.59426 -76.28672 22852 ft 352 kts 231°
2026-04-30 04:51 39.57669 -76.30858 22454 ft 351 kts 220°
2026-04-30 04:51 39.55720 -76.32754 22060 ft 348 kts 217°
2026-04-30 04:51 39.53720 -76.34514 21652 ft 346 kts 216°
2026-04-30 04:52 39.51730 -76.36183 21257 ft 343 kts 215°
2026-04-30 04:52 39.49730 -76.37860 20863 ft 340 kts 216°
2026-04-30 04:52 39.47757 -76.39521 20463 ft 337 kts 216°
2026-04-30 04:52 39.45811 -76.41186 20067 ft 334 kts 216°
2026-04-30 04:53 39.43884 -76.42843 19667 ft 331 kts 217°
2026-04-30 04:53 39.41974 -76.44482 19268 ft 328 kts 217°
2026-04-30 04:53 39.40076 -76.46108 18870 ft 326 kts 217°
2026-04-30 04:53 39.38195 -76.47734 18485 ft 323 kts 217°
2026-04-30 04:54 39.36342 -76.49351 18074 ft 320 kts 217°
2026-04-30 04:54 39.34501 -76.50953 17678 ft 318 kts 217°
2026-04-30 04:54 39.32661 -76.52549 17272 ft 316 kts 217°
2026-04-30 04:54 39.30870 -76.54095 16886 ft 312 kts 217°
2026-04-30 04:55 39.29076 -76.55639 16486 ft 309 kts 217°
2026-04-30 04:55 39.27290 -76.57169 16084 ft 306 kts 217°
2026-04-30 04:55 39.25525 -76.58694 15684 ft 304 kts 217°
2026-04-30 04:55 39.23762 -76.60200 15276 ft 304 kts 217°
2026-04-30 04:56 39.21982 -76.61725 14872 ft 310 kts 217°
2026-04-30 04:56 39.20185 -76.63269 14444 ft 313 kts 217°
2026-04-30 04:56 39.18351 -76.64848 14007 ft 319 kts 217°
2026-04-30 04:56 39.16515 -76.66476 13556 ft 321 kts 220°
2026-04-30 04:57 39.14817 -76.68354 13117 ft 321 kts 225°
2026-04-30 04:57 39.13189 -76.70340 12663 ft 324 kts 226°
2026-04-30 04:57 39.11557 -76.72367 12195 ft 326 kts 226°
2026-04-30 04:57 39.09917 -76.74403 11727 ft 330 kts 225°
2026-04-30 04:58 39.08247 -76.76444 11258 ft 332 kts 225°
2026-04-30 04:58 39.06560 -76.78492 10786 ft 335 kts 225°
2026-04-30 04:58 39.04840 -76.80539 10319 ft 337 kts 224°
2026-04-30 04:58 39.03104 -76.82575 9848 ft 338 kts 224°
2026-04-30 04:59 39.01376 -76.84618 9376 ft 338 kts 225°
2026-04-30 04:59 38.99641 -76.86674 8894 ft 339 kts 224°
2026-04-30 04:59 38.97949 -76.88774 8428 ft 337 kts 232°
2026-04-30 04:59 38.96882 -76.91418 7958 ft 335 kts 255°
2026-04-30 05:00 38.96704 -76.94349 7499 ft 336 kts 272°
2026-04-30 05:00 38.96923 -76.97332 7034 ft 335 kts 275°
2026-04-30 05:00 38.97190 -77.00307 6561 ft 334 kts 275°
2026-04-30 05:00 38.97755 -77.03190 6082 ft 337 kts 293°
2026-04-30 05:01 38.99169 -77.05607 5621 ft 342 kts 313°
2026-04-30 05:01 39.00963 -77.07629 5147 ft 343 kts 317°
2026-04-30 05:01 39.02798 -77.09581 4672 ft 341 kts 317°
2026-04-30 05:01 39.04610 -77.11555 4231 ft 342 kts 316°
2026-04-30 05:02 39.06372 -77.13558 4078 ft 333 kts 315°
2026-04-30 05:02 39.08057 -77.15545 4006 ft 322 kts 314°
2026-04-30 05:02 39.09655 -77.17478 4007 ft 310 kts 313°
2026-04-30 05:02 39.11187 -77.19372 4005 ft 301 kts 313°
2026-04-30 05:03 39.12663 -77.21223 3992 ft 293 kts 313°
2026-04-30 05:03 39.14115 -77.23030 4002 ft 287 kts 313°
2026-04-30 05:03 39.15546 -77.24808 4006 ft 284 kts 313°
2026-04-30 05:03 39.16961 -77.26552 4000 ft 279 kts 313°
2026-04-30 05:04 39.18346 -77.28276 3999 ft 275 kts 313°
2026-04-30 05:04 39.19713 -77.29977 4006 ft 271 kts 313°
2026-04-30 05:04 39.21055 -77.31652 4006 ft 267 kts 313°
2026-04-30 05:04 39.22389 -77.33317 4006 ft 265 kts 313°
2026-04-30 05:05 39.23711 -77.34966 4010 ft 264 kts 313°
2026-04-30 05:05 39.25024 -77.36609 4014 ft 263 kts 313°
2026-04-30 05:05 39.26328 -77.38217 4016 ft 262 kts 314°
2026-04-30 05:06 39.28949 -77.41463 4022 ft 261 kts 313°
2026-04-30 05:06 39.30248 -77.43091 4026 ft 259 kts 313°
2026-04-30 05:06 39.31541 -77.44714 4020 ft 259 kts 313°
2026-04-30 05:06 39.32832 -77.46331 4019 ft 258 kts 313°
2026-04-30 05:07 39.34120 -77.47937 4018 ft 257 kts 313°
2026-04-30 05:07 39.35408 -77.49529 4019 ft 256 kts 313°
2026-04-30 05:07 39.36700 -77.51115 4016 ft 255 kts 314°
2026-04-30 05:07 39.37989 -77.52690 4022 ft 255 kts 314°
2026-04-30 05:08 39.39275 -77.54264 4022 ft 254 kts 314°
2026-04-30 05:08 39.40552 -77.55835 4030 ft 253 kts 314°
2026-04-30 05:08 39.41837 -77.57419 4022 ft 255 kts 314°
2026-04-30 05:08 39.43119 -77.59001 4020 ft 254 kts 314°
2026-04-30 05:09 39.44395 -77.60579 4009 ft 253 kts 313°
2026-04-30 05:09 39.45650 -77.62125 3997 ft 252 kts 314°
2026-04-30 05:09 39.46930 -77.63713 4001 ft 252 kts 314°
2026-04-30 05:09 39.48179 -77.65273 4010 ft 252 kts 313°
2026-04-30 05:10 39.49436 -77.66846 4008 ft 252 kts 313°
2026-04-30 05:10 39.50699 -77.68426 4010 ft 253 kts 314°
2026-04-30 05:10 39.51964 -77.70008 4010 ft 253 kts 314°
2026-04-30 05:10 39.53227 -77.71587 3998 ft 253 kts 314°
2026-04-30 05:11 39.54492 -77.73169 4006 ft 252 kts 314°
2026-04-30 05:11 39.55754 -77.74753 4007 ft 252 kts 314°
2026-04-30 05:11 39.57011 -77.76340 4009 ft 252 kts 314°
2026-04-30 05:11 39.58266 -77.77922 4006 ft 252 kts 314°
2026-04-30 05:12 39.59521 -77.79507 4007 ft 252 kts 314°
2026-04-30 05:12 39.60784 -77.81085 3990 ft 251 kts 314°
2026-04-30 05:12 39.62044 -77.82643 4006 ft 250 kts 314°
2026-04-30 05:12 39.63295 -77.84203 4004 ft 249 kts 314°
2026-04-30 05:13 39.64545 -77.85760 3999 ft 250 kts 314°
2026-04-30 05:13 39.65800 -77.87313 4005 ft 249 kts 314°
2026-04-30 05:13 39.67053 -77.88859 3996 ft 249 kts 314°
2026-04-30 05:13 39.68312 -77.90402 4003 ft 249 kts 315°
2026-04-30 05:14 39.69573 -77.91953 3996 ft 249 kts 315°
2026-04-30 05:14 39.70828 -77.93509 4000 ft 249 kts 314°
2026-04-30 05:14 39.72092 -77.95080 4001 ft 252 kts 315°
2026-04-30 05:14 39.73350 -77.96635 4013 ft 252 kts 314°
2026-04-30 05:15 39.74639 -77.98214 4006 ft 251 kts 315°
2026-04-30 05:15 39.75897 -77.99759 4005 ft 251 kts 315°
2026-04-30 05:15 39.77157 -78.01327 4000 ft 250 kts 315°
2026-04-30 05:15 39.78420 -78.02892 4010 ft 251 kts 315°
2026-04-30 05:16 39.79681 -78.04469 4017 ft 251 kts 314°
2026-04-30 05:16 39.80939 -78.06039 4013 ft 250 kts 314°
2026-04-30 05:16 39.82203 -78.07601 4007 ft 250 kts 315°
2026-04-30 05:16 39.83468 -78.09158 4021 ft 251 kts 315°
2026-04-30 05:17 39.84736 -78.10725 4019 ft 251 kts 315°
2026-04-30 05:17 39.86004 -78.12295 4022 ft 251 kts 315°
2026-04-30 05:17 39.87262 -78.13856 4019 ft 250 kts 315°
2026-04-30 05:17 39.88521 -78.15411 4030 ft 249 kts 315°
2026-04-30 05:18 39.89773 -78.16963 4018 ft 250 kts 315°
2026-04-30 05:18 39.91031 -78.18527 4021 ft 250 kts 315°
2026-04-30 05:18 39.92297 -78.20096 4021 ft 250 kts 315°
2026-04-30 05:18 39.93557 -78.21622 4036 ft 250 kts 315°
2026-04-30 05:19 39.94834 -78.23214 4033 ft 252 kts 314°
2026-04-30 05:19 39.96083 -78.24774 4040 ft 252 kts 314°
2026-04-30 05:19 39.97367 -78.26380 4028 ft 253 kts 315°
2026-04-30 05:19 39.98621 -78.27939 4026 ft 252 kts 315°
2026-04-30 05:20 39.99890 -78.29509 4012 ft 251 kts 315°
2026-04-30 05:20 40.01124 -78.31110 4013 ft 249 kts 314°
2026-04-30 05:20 40.02384 -78.32668 4018 ft 250 kts 315°
2026-04-30 05:20 40.03650 -78.34215 4008 ft 249 kts 315°
2026-04-30 05:21 40.04933 -78.35731 4023 ft 249 kts 315°
2026-04-30 05:21 40.06188 -78.37289 4013 ft 249 kts 314°
2026-04-30 05:21 40.07437 -78.38858 4030 ft 249 kts 314°
2026-04-30 05:21 40.08690 -78.40428 4018 ft 249 kts 315°
2026-04-30 05:22 40.09944 -78.42002 4035 ft 250 kts 315°
2026-04-30 05:22 40.10778 -78.43045 4041 ft 251 kts 315°
2026-04-30 05:22 40.12045 -78.44622 4059 ft 252 kts 315°
2026-04-30 05:22 40.13750 -78.46738 4050 ft 253 kts 315°
2026-04-30 05:23 40.14592 -78.47782 4037 ft 252 kts 315°
2026-04-30 05:23 40.15867 -78.49365 4019 ft 252 kts 315°
2026-04-30 05:23 40.17133 -78.50955 4029 ft 252 kts 315°
2026-04-30 05:23 40.18405 -78.52535 4031 ft 252 kts 315°
2026-04-30 05:24 40.19678 -78.54115 4028 ft 251 kts 315°
2026-04-30 05:24 40.20943 -78.55689 4029 ft 251 kts 315°
2026-04-30 05:24 40.22206 -78.57266 4025 ft 251 kts 315°
2026-04-30 05:24 40.23474 -78.58840 4027 ft 251 kts 315°
2026-04-30 05:25 40.24728 -78.60397 4020 ft 251 kts 315°
2026-04-30 05:25 40.25993 -78.61973 4031 ft 251 kts 315°
2026-04-30 05:25 40.27260 -78.63544 4032 ft 251 kts 315°
2026-04-30 05:25 40.28528 -78.65113 4027 ft 250 kts 315°
2026-04-30 05:26 40.29793 -78.66678 4028 ft 250 kts 316°
2026-04-30 05:26 40.31059 -78.68235 4041 ft 249 kts 316°
2026-04-30 05:26 40.32323 -78.69789 4049 ft 249 kts 316°
2026-04-30 05:26 40.33588 -78.71340 4035 ft 249 kts 316°
2026-04-30 05:27 40.34851 -78.72892 4025 ft 249 kts 315°
2026-04-30 05:27 40.36116 -78.74449 4022 ft 249 kts 315°
2026-04-30 05:27 40.37372 -78.76013 4022 ft 249 kts 315°
2026-04-30 05:27 40.38630 -78.77582 4017 ft 249 kts 315°
2026-04-30 05:28 40.39882 -78.79148 4017 ft 249 kts 315°
2026-04-30 05:28 40.41136 -78.80710 4027 ft 248 kts 316°
2026-04-30 05:28 40.42394 -78.82256 4030 ft 248 kts 316°
2026-04-30 05:28 40.43657 -78.83806 4027 ft 248 kts 315°
2026-04-30 05:29 40.44913 -78.85366 4023 ft 248 kts 315°
2026-04-30 05:29 40.46164 -78.86934 4022 ft 248 kts 315°
2026-04-30 05:29 40.47416 -78.88483 4033 ft 247 kts 316°
2026-04-30 05:29 40.48674 -78.90025 4035 ft 248 kts 316°
2026-04-30 05:30 40.49935 -78.91575 4033 ft 247 kts 315°
2026-04-30 05:30 40.51185 -78.93129 4033 ft 247 kts 315°
2026-04-30 05:30 40.52417 -78.94672 4039 ft 248 kts 315°
2026-04-30 05:30 40.53666 -78.96242 4040 ft 248 kts 315°
2026-04-30 05:31 40.54910 -78.97805 4044 ft 247 kts 315°
2026-04-30 05:31 40.56153 -78.99367 4055 ft 248 kts 315°
2026-04-30 05:31 40.57400 -79.00939 4059 ft 248 kts 315°
2026-04-30 05:31 40.58664 -79.02526 4057 ft 248 kts 315°
2026-04-30 05:32 40.59925 -79.04082 4049 ft 248 kts 316°
2026-04-30 05:32 40.61164 -79.05618 4056 ft 248 kts 315°
2026-04-30 05:32 40.62418 -79.07182 4055 ft 248 kts 316°
2026-04-30 05:32 40.63672 -79.08740 4054 ft 247 kts 315°
2026-04-30 05:33 40.64920 -79.10302 4050 ft 248 kts 315°
2026-04-30 05:33 40.66169 -79.11874 4054 ft 248 kts 315°
2026-04-30 05:33 40.67417 -79.13438 4055 ft 248 kts 315°
2026-04-30 05:33 40.68670 -79.14999 4051 ft 248 kts 315°
2026-04-30 05:34 40.69926 -79.16560 4056 ft 248 kts 315°
2026-04-30 05:34 40.71187 -79.18094 4053 ft 246 kts 316°
2026-04-30 05:34 40.72442 -79.19634 4042 ft 246 kts 315°
2026-04-30 05:34 40.73671 -79.21156 4043 ft 245 kts 316°
2026-04-30 05:35 40.74921 -79.22700 4043 ft 246 kts 316°
2026-04-30 05:35 40.76173 -79.24231 4051 ft 246 kts 316°
2026-04-30 05:35 40.77428 -79.25769 4058 ft 246 kts 316°
2026-04-30 05:35 40.78687 -79.27312 4051 ft 247 kts 316°
2026-04-30 05:36 40.79949 -79.28860 4061 ft 248 kts 316°
2026-04-30 05:36 40.81213 -79.30415 4060 ft 249 kts 316°
2026-04-30 05:36 40.82482 -79.31970 4056 ft 249 kts 316°
2026-04-30 05:36 40.83754 -79.33527 4053 ft 249 kts 316°
2026-04-30 05:37 40.85026 -79.35082 4056 ft 249 kts 316°
2026-04-30 05:37 40.86293 -79.36632 4057 ft 248 kts 316°
2026-04-30 05:37 40.87557 -79.38179 4056 ft 248 kts 316°
2026-04-30 05:37 40.88808 -79.39713 4055 ft 248 kts 316°
2026-04-30 05:38 40.90074 -79.41262 4057 ft 248 kts 316°
2026-04-30 05:38 40.91338 -79.42810 4055 ft 248 kts 316°
2026-04-30 05:38 40.92606 -79.44358 4055 ft 248 kts 316°
2026-04-30 05:38 40.93873 -79.45907 4060 ft 247 kts 316°
2026-04-30 05:39 40.95131 -79.47452 4060 ft 247 kts 316°
2026-04-30 05:39 40.96390 -79.48998 4056 ft 247 kts 316°
2026-04-30 05:39 40.97648 -79.50543 4059 ft 246 kts 316°
2026-04-30 05:39 40.98905 -79.52079 4050 ft 246 kts 316°
2026-04-30 05:40 41.00159 -79.53611 4050 ft 245 kts 316°
2026-04-30 05:40 41.01410 -79.55151 4053 ft 246 kts 316°
2026-04-30 05:40 41.02664 -79.56695 4059 ft 246 kts 316°
2026-04-30 05:40 41.03916 -79.58235 4053 ft 246 kts 316°
2026-04-30 05:41 41.05175 -79.59782 4061 ft 246 kts 316°
2026-04-30 05:41 41.06430 -79.61327 4072 ft 246 kts 317°
2026-04-30 05:41 41.07686 -79.62874 4065 ft 246 kts 316°
2026-04-30 05:41 41.08927 -79.64402 4069 ft 246 kts 316°
2026-04-30 05:42 41.10183 -79.65952 4073 ft 247 kts 316°
2026-04-30 05:42 41.11441 -79.67502 4070 ft 247 kts 316°
2026-04-30 05:42 41.12701 -79.69056 4067 ft 247 kts 316°
2026-04-30 05:42 41.13947 -79.70593 4068 ft 247 kts 316°